Tracking 22779 objects as of 12-Apr-2021
HD Live streaming from Space Station
objects crossing your sky now

STARLINK-70

Track STARLINK-70 now!
10-day predictions
STARLINK-70 is classified as:


NORAD ID: 44281
Int'l Code: 2019-029AY
Perigee: 418.0 km
Apogee: 420.8 km
Inclination: 53.0 °
Period: 92.8 minutes
Semi major axis: 6790 km
RCS: Unknown
Launch date: May 24, 2019
Source: United States (US)
Launch site: AIR FORCE EASTERN TEST RANGE (AFETR)
aabbcc
Your satellite tracking list
Your tracking list is empty




NASA's NSSDC Master Catalog

Two Line Element Set (TLE):
1 44281U 19029AY  21101.70993075  .00029168  00000-0  49059-3 0  9991
2 44281  52.9983 233.6329 0002099  43.8600 316.2575 15.51522728 36192
Source of the keplerian elements: AFSPC